Location: Fort Worth, Tx
(32.7431°N, 97.3695°W)
Time: 12:30:42
(UTC-04:00)

Tiros 1 - Pass Details

Date: 25 February 2024
Orbit: 625 x 657 km, 48.4° (Epoch: 24 April)

Event Time Altitude Azimuth Distance (km) Brightness Sun altitude
Exits shadow 06:09:30 14° 179° (S) 1,745 9.3 -24.5°
Drops below altitude 10° 06:10:24 10° 172° (S) 2,018 9.7 -24.3°
Sets 06:12:59 0° 160° (SSE) 2,917 10.7 -23.8°
